| time (UTC) | temp F | wind direction | speed MPH | gust MPH | rain 1hr in | rain 24hr in | rain mn in | humidity % | barometer mb |
| 20260505095019 | 51 | 0 | 0.0 | 0.0 | 0.00 | 0.04 | 0.02 | 76 | 1023.1 |
| 20260505094533 | 51 | 0 | 0.0 | 0.0 | 0.00 | 0.04 | 0.02 | 76 | 1023.1 |
| 20260505094020 | 51 | 0 | 0.0 | 2.0 | 0.00 | 0.04 | 0.02 | 76 | 1023.1 |
| 20260505093520 | 51 | 0 | 0.0 | 4.0 | 0.00 | 0.04 | 0.02 | 76 | 1023.1 |
| 20260505093040 | 51 | 216 | 1.0 | 4.0 | 0.00 | 0.04 | 0.02 | 75 | 1023.0 |
| 20260505092517 | 51 | 0 | 0.0 | 0.0 | 0.00 | 0.04 | 0.02 | 75 | 1023.1 |
| 20260505092017 | 51 | 0 | 0.0 | 0.0 | 0.00 | 0.04 | 0.02 | 75 | 1023.1 |
| 20260505091536 | 51 | 0 | 0.0 | 0.0 | 0.00 | 0.04 | 0.02 | 75 | 1023.1 |
| 20260505091016 | 51 | 0 | 0.0 | 1.0 | 0.00 | 0.04 | 0.02 | 75 | 1023.1 |
| 20260505090520 | 51 | 0 | 0.0 | 2.0 | 0.00 | 0.04 | 0.02 | 75 | 1023.1 |
| 20260505090035 | 51 | 200 | 0.0 | 2.0 | 0.00 | 0.04 | 0.02 | 75 | 1023.2 |
| 20260505085519 | 51 | 200 | 0.0 | 7.0 | 0.00 | 0.04 | 0.02 | 75 | 1023.1 |
| 20260505085020 | 51 | 0 | 1.0 | 7.0 | 0.00 | 0.04 | 0.02 | 75 | 1023.0 |
| 20260505084535 | 51 | 209 | 3.0 | 8.0 | 0.00 | 0.04 | 0.02 | 75 | 1022.9 |
| 20260505084020 | 51 | 196 | 2.0 | 8.0 | 0.00 | 0.04 | 0.02 | 76 | 1023.0 |
| 20260505083521 | 51 | 233 | 4.0 | 8.0 | 0.00 | 0.04 | 0.02 | 76 | 1022.9 |
| 20260505083040 | 51 | 223 | 2.0 | 5.0 | 0.00 | 0.04 | 0.02 | 76 | 1022.9 |
| 20260505082517 | 51 | 223 | 2.0 | 5.0 | 0.00 | 0.04 | 0.02 | 76 | 1022.9 |
| 20260505082020 | 51 | 0 | 1.0 | 4.0 | 0.00 | 0.04 | 0.02 | 76 | 1022.8 |
| 20260505081538 | 51 | 217 | 2.0 | 4.0 | 0.00 | 0.04 | 0.02 | 76 | 1022.7 |
| 20260505081020 | 51 | 215 | 1.0 | 2.0 | 0.00 | 0.04 | 0.02 | 76 | 1022.6 |
| 20260505080520 | 51 | 0 | 0.0 | 2.0 | 0.00 | 0.04 | 0.02 | 76 | 1022.7 |
| 20260505080046 | 51 | 215 | 1.0 | 2.0 | 0.00 | 0.04 | 0.02 | 76 | 1022.6 |
| 20260505075519 | 51 | 215 | 1.0 | 2.0 | 0.00 | 0.14 | 0.02 | 76 | 1022.5 |
| 20260505075019 | 51 | 215 | 1.0 | 7.0 | 0.00 | 0.14 | 0.02 | 75 | 1022.5 |
| 20260505074535 | 51 | 215 | 2.0 | 10.0 | 0.00 | 0.14 | 0.02 | 75 | 1022.5 |
| 20260505074016 | 51 | 215 | 5.0 | 10.0 | 0.00 | 0.14 | 0.02 | 75 | 1022.4 |
| 20260505073519 | 51 | 199 | 5.0 | 10.0 | 0.00 | 0.14 | 0.02 | 76 | 1022.3 |
| 20260505073039 | 51 | 236 | 6.0 | 10.0 | 0.00 | 0.14 | 0.02 | 76 | 1022.3 |
| 20260505072520 | 51 | 243 | 4.0 | 11.0 | 0.00 | 0.14 | 0.02 | 76 | 1022.1 |
| 20260505072021 | 51 | 227 | 4.0 | 11.0 | 0.00 | 0.14 | 0.02 | 76 | 1022.2 |
| 20260505071531 | 52 | 248 | 4.0 | 7.0 | 0.00 | 0.14 | 0.02 | 76 | 1022.2 |
| 20260505071022 | 52 | 223 | 4.0 | 7.0 | 0.00 | 0.14 | 0.02 | 75 | 1022.2 |
| 20260505070520 | 52 | 234 | 3.0 | 5.0 | 0.00 | 0.14 | 0.02 | 75 | 1022.2 |
| 20260505070034 | 52 | 233 | 3.0 | 5.0 | 0.00 | 0.14 | 0.02 | 75 | 1022.2 |
| 20260505065521 | 53 | 246 | 3.0 | 6.0 | 0.00 | 0.29 | 0.02 | 74 | 1022.1 |
| 20260505065016 | 53 | 211 | 3.0 | 7.0 | 0.00 | 0.29 | 0.02 | 74 | 1022.0 |
| 20260505064535 | 53 | 196 | 4.0 | 7.0 | 0.00 | 0.29 | 0.02 | 73 | 1021.9 |
| 20260505064019 | 53 | 225 | 3.0 | 7.0 | 0.00 | 0.29 | 0.02 | 73 | 1021.8 |
| 20260505063516 | 53 | 215 | 4.0 | 8.0 | 0.00 | 0.29 | 0.02 | 73 | 1021.7 |
| 20260505063045 | 54 | 191 | 4.0 | 8.0 | 0.00 | 0.29 | 0.02 | 73 | 1021.7 |
| 20260505062520 | 54 | 202 | 4.0 | 8.0 | 0.00 | 0.29 | 0.02 | 74 | 1021.6 |
| 20260505062019 | 53 | 194 | 4.0 | 8.0 | 0.00 | 0.29 | 0.02 | 74 | 1021.7 |
| 20260505061540 | 53 | 203 | 4.0 | 9.0 | 0.00 | 0.29 | 0.02 | 74 | 1021.7 |
| 20260505061019 | 53 | 234 | 4.0 | 9.0 | 0.00 | 0.29 | 0.02 | 74 | 1021.7 |
| 20260505060520 | 53 | 223 | 5.0 | 8.0 | 0.00 | 0.29 | 0.02 | 74 | 1021.6 |
| 20260505060034 | 53 | 221 | 3.0 | 10.0 | 0.00 | 0.29 | 0.02 | 74 | 1021.6 |
| 20260505055520 | 53 | 218 | 5.0 | 10.0 | 0.00 | 0.30 | 0.02 | 74 | 1021.6 |
| 20260505055020 | 54 | 227 | 5.0 | 12.0 | 0.00 | 0.30 | 0.02 | 73 | 1021.4 |
| 20260505054543 | 54 | 250 | 6.0 | 12.0 | 0.00 | 0.30 | 0.02 | 73 | 1021.4 |
| 20260505054019 | 54 | 221 | 5.0 | 10.0 | 0.00 | 0.30 | 0.02 | 73 | 1021.3 |
| 20260505053519 | 55 | 240 | 5.0 | 10.0 | 0.00 | 0.30 | 0.02 | 72 | 1021.2 |
| 20260505053041 | 55 | 253 | 5.0 | 10.0 | 0.00 | 0.30 | 0.02 | 72 | 1021.1 |
| 20260505052519 | 55 | 242 | 3.0 | 8.0 | 0.00 | 0.30 | 0.02 | 71 | 1021.0 |
| 20260505052019 | 56 | 208 | 4.0 | 8.0 | 0.00 | 0.30 | 0.02 | 71 | 1021.0 |
| 20260505051540 | 56 | 207 | 4.0 | 8.0 | 0.00 | 0.30 | 0.02 | 72 | 1020.8 |
| 20260505051017 | 56 | 211 | 5.0 | 9.0 | 0.00 | 0.30 | 0.02 | 71 | 1020.8 |
| 20260505050517 | 56 | 229 | 5.0 | 9.0 | 0.00 | 0.30 | 0.02 | 70 | 1020.8 |
| 20260505041536 | 55 | 250 | 1.0 | 7.0 | 0.00 | 0.30 | 0.02 | 69 | 1020.5 |
| 20260505041020 | 56 | 249 | 3.0 | 11.0 | 0.00 | 0.30 | 0.02 | 67 | 1020.5 |
| 20260505040518 | 56 | 229 | 4.0 | 11.0 | 0.00 | 0.30 | 0.02 | 67 | 1020.5 |
| 20260505040037 | 56 | 227 | 6.0 | 11.0 | 0.00 | 0.30 | 0.02 | 68 | 1020.4 |
| 20260505035521 | 56 | 263 | 3.0 | 8.0 | 0.00 | 0.30 | 0.02 | 70 | 1020.4 |
| 20260505035019 | 55 | 317 | 1.0 | 6.0 | 0.00 | 0.30 | 0.02 | 71 | 1020.4 |
| 20260505034535 | 54 | 279 | 2.0 | 6.0 | 0.00 | 0.30 | 0.02 | 70 | 1020.4 |
| 20260505034016 | 55 | 200 | 2.0 | 8.0 | 0.00 | 0.30 | 0.02 | 70 | 1020.3 |
| 20260505033520 | 54 | 220 | 3.0 | 8.0 | 0.00 | 0.30 | 0.02 | 71 | 1020.3 |
| 20260505033033 | 54 | 248 | 4.0 | 9.0 | 0.00 | 0.30 | 0.02 | 70 | 1020.3 |
| 20260505032520 | 54 | 180 | 3.0 | 10.0 | 0.00 | 0.30 | 0.02 | 70 | 1020.4 |
| 20260505032016 | 54 | 236 | 3.0 | 10.0 | 0.00 | 0.30 | 0.02 | 70 | 1020.4 |
| 20260505031538 | 54 | 196 | 6.0 | 10.0 | 0.00 | 0.30 | 0.02 | 69 | 1020.4 |
| 20260505031023 | 55 | 225 | 3.0 | 7.0 | 0.00 | 0.30 | 0.02 | 72 | 1020.5 |
| 20260505030517 | 54 | 217 | 1.0 | 8.0 | 0.00 | 0.30 | 0.02 | 74 | 1020.4 |
| 20260505030036 | 54 | 172 | 4.0 | 8.0 | 0.00 | 0.30 | 0.02 | 73 | 1020.5 |
| 20260505025518 | 54 | 133 | 4.0 | 12.0 | 0.00 | 0.30 | 0.02 | 74 | 1020.6 |
| 20260505025021 | 53 | 211 | 5.0 | 12.0 | 0.00 | 0.30 | 0.02 | 76 | 1020.7 |
| 20260505024536 | 52 | 184 | 4.0 | 10.0 | 0.00 | 0.30 | 0.02 | 77 | 1020.8 |
| 20260505024016 | 52 | 212 | 3.0 | 8.0 | 0.00 | 0.30 | 0.02 | 77 | 1020.8 |
| 20260505023516 | 52 | 170 | 3.0 | 8.0 | 0.00 | 0.30 | 0.02 | 77 | 1020.9 |
| 20260505023037 | 52 | 140 | 5.0 | 8.0 | 0.00 | 0.30 | 0.02 | 77 | 1020.8 |
| 20260505022520 | 52 | 210 | 2.0 | 8.0 | 0.00 | 0.30 | 0.02 | 78 | 1021.0 |
| 20260505022019 | 51 | 201 | 4.0 | 9.0 | 0.00 | 0.30 | 0.02 | 78 | 1021.0 |
| 20260505021535 | 51 | 228 | 3.0 | 11.0 | 0.00 | 0.30 | 0.02 | 78 | 1021.1 |
| 20260505021020 | 51 | 207 | 4.0 | 12.0 | 0.00 | 0.30 | 0.02 | 79 | 1021.1 |
| 20260505020520 | 51 | 211 | 6.0 | 12.0 | 0.00 | 0.30 | 0.02 | 79 | 1021.1 |
| 20260505020039 | 52 | 221 | 6.0 | 12.0 | 0.00 | 0.30 | 0.02 | 79 | 1021.1 |
| 20260505015523 | 52 | 221 | 6.0 | 11.0 | 0.00 | 0.30 | 0.02 | 79 | 1021.1 |
| 20260505015020 | 52 | 234 | 5.0 | 12.0 | 0.00 | 0.30 | 0.02 | 79 | 1021.1 |
| 20260505014538 | 52 | 186 | 6.0 | 12.0 | 0.00 | 0.30 | 0.02 | 79 | 1021.1 |
| 20260505014019 | 52 | 191 | 5.0 | 13.0 | 0.00 | 0.30 | 0.02 | 79 | 1021.0 |
| 20260505013520 | 52 | 242 | 7.0 | 13.0 | 0.00 | 0.30 | 0.02 | 79 | 1021.1 |
| 20260505013035 | 52 | 238 | 6.0 | 12.0 | 0.00 | 0.30 | 0.02 | 81 | 1021.1 |
| 20260505012519 | 51 | 200 | 4.0 | 11.0 | 0.00 | 0.30 | 0.02 | 83 | 1021.1 |
| 20260505012019 | 51 | 219 | 5.0 | 11.0 | 0.00 | 0.30 | 0.02 | 83 | 1021.1 |
| 20260505011537 | 51 | 192 | 5.0 | 11.0 | 0.00 | 0.30 | 0.02 | 84 | 1021.0 |
| 20260505011021 | 51 | 223 | 6.0 | 11.0 | 0.00 | 0.30 | 0.02 | 85 | 1021.0 |
| 20260505010521 | 51 | 253 | 4.0 | 12.0 | 0.00 | 0.30 | 0.02 | 86 | 1021.0 |
| 20260505010057 | 51 | 240 | 6.0 | 12.0 | 0.00 | 0.30 | 0.02 | 86 | 1020.9 |
| 20260505005520 | 51 | 229 | 7.0 | 13.0 | 0.00 | 0.30 | 0.02 | 88 | 1020.9 |
| 20260505005020 | 50 | 263 | 7.0 | 14.0 | 0.00 | 0.30 | 0.02 | 89 | 1020.9 |
| 20260505004536 | 50 | 221 | 7.0 | 14.0 | 0.00 | 0.30 | 0.02 | 89 | 1020.8 |
| 20260505004019 | 50 | 230 | 7.0 | 13.0 | 0.00 | 0.30 | 0.02 | 91 | 1020.8 |
| 20260505003520 | 50 | 203 | 6.0 | 14.0 | 0.00 | 0.30 | 0.02 | 92 | 1020.7 |
| 20260505003041 | 50 | 229 | 5.0 | 14.0 | 0.00 | 0.30 | 0.02 | 92 | 1020.6 |
| 20260505002516 | 50 | 225 | 7.0 | 14.0 | 0.00 | 0.30 | 0.02 | 93 | 1020.5 |
| 20260505002017 | 50 | 223 | 8.0 | 14.0 | 0.00 | 0.30 | 0.02 | 93 | 1020.4 |
| 20260505001535 | 50 | 276 | 6.0 | 12.0 | 0.00 | 0.30 | 0.02 | 94 | 1020.4 |
| 20260505001020 | 50 | 230 | 5.0 | 11.0 | 0.00 | 0.30 | 0.02 | 94 | 1020.4 |
| 20260505000519 | 50 | 246 | 6.0 | 10.0 | 0.00 | 0.30 | 0.02 | 95 | 1020.3 |
| 20260505000043 | 50 | 245 | 4.0 | 9.0 | 0.00 | 0.30 | 0.02 | 95 | 1020.3 |
| 20260504235520 | 49 | 228 | 5.0 | 10.0 | 0.00 | 0.30 | 0.02 | 95 | 1020.3 |
| 20260504235020 | 49 | 207 | 5.0 | 10.0 | 0.00 | 0.30 | 0.02 | 95 | 1020.2 |
| 20260504234534 | 49 | 240 | 4.0 | 10.0 | 0.00 | 0.30 | 0.02 | 95 | 1020.2 |
| 20260504234021 | 49 | 248 | 5.0 | 10.0 | 0.00 | 0.30 | 0.02 | 95 | 1020.3 |
| 20260504233521 | 49 | 217 | 4.0 | 9.0 | 0.00 | 0.30 | 0.02 | 95 | 1020.3 |
| 20260504233033 | 48 | 237 | 5.0 | 9.0 | 0.00 | 0.30 | 0.02 | 95 | 1020.2 |
| 20260504232520 | 48 | 239 | 3.0 | 8.0 | 0.00 | 0.30 | 0.02 | 95 | 1020.2 |
| 20260504232019 | 48 | 205 | 3.0 | 8.0 | 0.00 | 0.30 | 0.02 | 95 | 1020.2 |
| 20260504231543 | 48 | 194 | 3.0 | 7.0 | 0.00 | 0.30 | 0.02 | 95 | 1020.3 |
| 20260504231020 | 48 | 192 | 3.0 | 8.0 | 0.00 | 0.30 | 0.02 | 95 | 1020.2 |
| 20260504230519 | 48 | 0 | 4.0 | 13.0 | 0.00 | 0.30 | 0.02 | 95 | 1020.1 |
| 20260504230044 | 48 | 213 | 7.0 | 13.0 | 0.00 | 0.30 | 0.02 | 95 | 1020.0 |
| 20260504225521 | 48 | 184 | 3.0 | 8.0 | 0.00 | 0.30 | 0.02 | 95 | 1020.1 |
| 20260504225021 | 48 | 178 | 4.0 | 11.0 | 0.00 | 0.30 | 0.02 | 95 | 1020.1 |
| 20260504224536 | 48 | 194 | 4.0 | 11.0 | 0.00 | 0.30 | 0.02 | 95 | 1020.0 |
| 20260504224020 | 48 | 200 | 5.0 | 11.0 | 0.00 | 0.30 | 0.02 | 95 | 1019.9 |
| 20260504223520 | 48 | 227 | 3.0 | 7.0 | 0.00 | 0.30 | 0.02 | 95 | 1019.9 |
| 20260504223035 | 48 | 236 | 3.0 | 7.0 | 0.00 | 0.30 | 0.02 | 95 | 1019.8 |
| 20260504222520 | 48 | 219 | 3.0 | 7.0 | 0.00 | 0.30 | 0.02 | 95 | 1019.6 |
| 20260504222021 | 48 | 221 | 3.0 | 6.0 | 0.00 | 0.29 | 0.01 | 95 | 1019.7 |
| 20260504221548 | 48 | 211 | 3.0 | 5.0 | 0.00 | 0.29 | 0.01 | 96 | 1019.6 |
| 20260504221020 | 48 | 241 | 2.0 | 8.0 | 0.00 | 0.29 | 0.01 | 96 | 1019.4 |
| 20260504220519 | 48 | 0 | 2.0 | 8.0 | 0.00 | 0.29 | 0.01 | 95 | 1019.4 |
| 20260504220038 | 48 | 230 | 2.0 | 5.0 | 0.00 | 0.29 | 0.01 | 95 | 1019.4 |
| 20260504215517 | 48 | 210 | 1.0 | 4.0 | 0.00 | 0.29 | 0.01 | 95 | 1019.3 |
| 20260504215022 | 48 | 214 | 1.0 | 7.0 | 0.00 | 0.29 | 0.01 | 95 | 1019.1 |
| 20260504214535 | 48 | 0 | 3.0 | 7.0 | 0.00 | 0.29 | 0.01 | 95 | 1019.0 |
| 20260504214019 | 48 | 237 | 2.0 | 8.0 | 0.00 | 0.29 | 0.01 | 95 | 1018.8 |
| 20260504213521 | 48 | 226 | 2.0 | 8.0 | 0.00 | 0.29 | 0.01 | 95 | 1018.7 |
| 20260504213047 | 48 | 244 | 5.0 | 8.0 | 0.00 | 0.29 | 0.01 | 95 | 1018.6 |
| 20260504212519 | 48 | 249 | 4.0 | 8.0 | 0.00 | 0.29 | 0.01 | 95 | 1018.5 |
| 20260504212019 | 47 | 281 | 2.0 | 7.0 | 0.00 | 0.29 | 0.01 | 95 | 1018.4 |
| 20260504211539 | 48 | 265 | 2.0 | 6.0 | 0.00 | 0.29 | 0.01 | 95 | 1018.4 |
| 20260504211020 | 48 | 258 | 3.0 | 6.0 | 0.00 | 0.29 | 0.01 | 95 | 1018.3 |
| 20260504210520 | 47 | 273 | 2.0 | 4.0 | 0.00 | 0.29 | 0.01 | 95 | 1018.1 |
| 20260504210041 | 47 | 266 | 1.0 | 5.0 | 0.00 | 0.29 | 0.01 | 95 | 1018.1 |
| 20260504205520 | 47 | 266 | 1.0 | 5.0 | 0.00 | 0.29 | 0.01 | 95 | 1017.9 |
| 20260504205019 | 47 | 277 | 2.0 | 6.0 | 0.00 | 0.29 | 0.01 | 95 | 1017.9 |
| 20260504204532 | 47 | 273 | 2.0 | 6.0 | 0.00 | 0.29 | 0.01 | 95 | 1017.9 |
| 20260504204019 | 47 | 290 | 2.0 | 5.0 | 0.00 | 0.29 | 0.01 | 95 | 1017.8 |
| 20260504203522 | 47 | 240 | 2.0 | 5.0 | 0.00 | 0.29 | 0.01 | 95 | 1017.7 |
| 20260504203046 | 47 | 233 | 2.0 | 6.0 | 0.00 | 0.29 | 0.01 | 95 | 1017.7 |
| 20260504202520 | 47 | 244 | 2.0 | 7.0 | 0.00 | 0.29 | 0.01 | 95 | 1017.7 |
| 20260504202019 | 47 | 248 | 2.0 | 7.0 | 0.00 | 0.29 | 0.01 | 95 | 1017.7 |
| 20260504201535 | 47 | 248 | 3.0 | 7.0 | 0.00 | 0.29 | 0.01 | 95 | 1017.6 |
| 20260504201021 | 47 | 233 | 2.0 | 8.0 | 0.00 | 0.29 | 0.01 | 95 | 1017.5 |
| 20260504200556 | 47 | 257 | 3.0 | 8.0 | 0.00 | 0.29 | 0.01 | 95 | 1017.5 |
| 20260504200036 | 47 | 252 | 3.0 | 9.0 | 0.00 | 0.29 | 0.01 | 95 | 1017.5 |
| 20260504195520 | 47 | 244 | 3.0 | 9.0 | 0.00 | 0.30 | 0.01 | 95 | 1017.4 |
| 20260504195020 | 47 | 268 | 4.0 | 9.0 | 0.00 | 0.30 | 0.01 | 95 | 1017.3 |
| 20260504194540 | 47 | 265 | 3.0 | 8.0 | 0.00 | 0.30 | 0.01 | 95 | 1017.3 |
| 20260504194020 | 47 | 267 | 3.0 | 8.0 | 0.00 | 0.30 | 0.01 | 95 | 1017.3 |
| 20260504193522 | 47 | 294 | 3.0 | 9.0 | 0.00 | 0.30 | 0.01 | 95 | 1017.3 |
| 20260504193039 | 47 | 301 | 3.0 | 9.0 | 0.00 | 0.30 | 0.01 | 95 | 1017.2 |
| 20260504192519 | 47 | 269 | 4.0 | 9.0 | 0.00 | 0.29 | 0.00 | 95 | 1017.2 |
| 20260504192019 | 47 | 288 | 3.0 | 8.0 | 0.00 | 0.29 | 0.00 | 95 | 1017.1 |
| 20260504191539 | 47 | 284 | 4.0 | 8.0 | 0.00 | 0.29 | 0.00 | 95 | 1017.0 |
| 20260504191021 | 47 | 293 | 3.0 | 8.0 | 0.00 | 0.29 | 0.00 | 95 | 1016.9 |
| 20260504190520 | 47 | 273 | 3.0 | 8.0 | 0.00 | 0.29 | 0.00 | 95 | 1016.9 |
| 20260504190037 | 47 | 300 | 3.0 | 8.0 | 0.00 | 0.29 | 0.00 | 95 | 1016.8 |
| 20260504185520 | 47 | 287 | 3.0 | 8.0 | 0.00 | 0.29 | 0.00 | 95 | 1016.8 |
| 20260504185023 | 47 | 288 | 4.0 | 8.0 | 0.00 | 0.29 | 0.00 | 95 | 1016.7 |
| 20260504184536 | 47 | 278 | 3.0 | 9.0 | 0.00 | 0.29 | 0.00 | 95 | 1016.8 |
| 20260504184020 | 47 | 264 | 3.0 | 10.0 | 0.00 | 0.29 | 0.00 | 95 | 1016.7 |
| 20260504183520 | 47 | 271 | 5.0 | 10.0 | 0.00 | 0.29 | 0.00 | 95 | 1016.6 |
| 20260504183033 | 48 | 276 | 4.0 | 8.0 | 0.00 | 0.29 | 0.00 | 95 | 1016.6 |
| 20260504182522 | 48 | 265 | 4.0 | 7.0 | 0.00 | 0.29 | 0.00 | 95 | 1016.5 |
| 20260504182020 | 48 | 281 | 2.0 | 8.0 | 0.00 | 0.29 | 0.00 | 95 | 1016.5 |
| 20260504181538 | 48 | 285 | 3.0 | 8.0 | 0.00 | 0.29 | 0.00 | 95 | 1016.5 |
| 20260504181022 | 48 | 263 | 4.0 | 8.0 | 0.00 | 0.29 | 0.00 | 95 | 1016.4 |
| 20260504180519 | 48 | 258 | 3.0 | 9.0 | 0.00 | 0.29 | 0.00 | 95 | 1016.4 |
| 20260504180046 | 48 | 277 | 3.0 | 9.0 | 0.00 | 0.29 | 0.00 | 95 | 1016.4 |
| 20260504175519 | 48 | 249 | 4.0 | 8.0 | 0.00 | 0.29 | 0.00 | 95 | 1016.3 |
| 20260504175019 | 48 | 284 | 3.0 | 7.0 | 0.00 | 0.29 | 0.00 | 95 | 1016.3 |
| 20260504174535 | 48 | 249 | 2.0 | 9.0 | 0.00 | 0.29 | 0.00 | 95 | 1016.2 |
| 20260504174019 | 48 | 272 | 4.0 | 9.0 | 0.00 | 0.29 | 0.00 | 95 | 1016.2 |
| 20260504173520 | 48 | 256 | 3.0 | 10.0 | 0.00 | 0.29 | 0.00 | 95 | 1016.2 |
| 20260504173035 | 48 | 255 | 3.0 | 10.0 | 0.00 | 0.29 | 0.00 | 95 | 1016.2 |
| 20260504172520 | 48 | 260 | 5.0 | 10.0 | 0.00 | 0.29 | 0.00 | 95 | 1016.2 |
| 20260504172020 | 48 | 274 | 4.0 | 8.0 | 0.00 | 0.29 | 0.00 | 95 | 1016.1 |
| 20260504171535 | 48 | 246 | 4.0 | 10.0 | 0.00 | 0.29 | 0.00 | 95 | 1016.2 |
| 20260504171020 | 48 | 281 | 5.0 | 10.0 | 0.00 | 0.29 | 0.00 | 95 | 1016.0 |
| 20260504170519 | 48 | 244 | 4.0 | 10.0 | 0.00 | 0.29 | 0.00 | 95 | 1016.0 |
| 20260504151020 | 48 | 254 | 3.0 | 10.0 | 0.00 | 0.29 | 0.00 | 95 | 1015.7 |
| 20260504150517 | 48 | 272 | 4.0 | 10.0 | 0.00 | 0.29 | 0.00 | 95 | 1015.7 |
| 20260504141018 | 49 | 250 | 7.0 | 15.0 | 0.00 | 0.29 | 0.00 | 95 | 1015.6 |
| 20260504140517 | 49 | 248 | 8.0 | 15.0 | 0.00 | 0.29 | 0.00 | 95 | 1015.7 |
| 20260504130520 | 49 | 284 | 7.0 | 13.0 | 0.00 | 0.29 | 0.29 | 95 | 1015.3 |
| 20260504110520 | 50 | 287 | 5.0 | 12.0 | 0.00 | 0.26 | 0.26 | 94 | 1014.2 |
| 20260504100520 | 50 | 294 | 9.0 | 14.0 | 0.00 | 0.26 | 0.26 | 94 | 1013.5 |